Regional Weather Roundup
Issued by NWS

Home | Current Version | Previous Version | Text Only | Print | Product List | Glossary Off
Versions: 1 2 3 4 5 6 7 8 9 10 11 12 13 14 15 16 17 18 19 20 21 22 23 24 25 26 27 28 29 30 31 32 33 34 35 36 37 38 39 40 41 42 43 44 45 46 47 48 49 50

000
ASUS43 KLSX 230857
RWRMO

WEATHER SUMMARY FOR MISSOURI
NATIONAL WEATHER SERVICE SPRINGFIELD MO
300 AM CST FRI FEB 23 2018

NOTE: "FAIR" INDICATES FEW OR NO CLOUDS BELOW 12,000 FEET WITH NO
       SIGNIFICANT WEATHER AND/OR OBSTRUCTIONS TO VISIBILITY.
       CURRENT SKY AND/OR WEATHER CONDITIONS ARE NOT AVAILABLE FOR
       CHILLICOTHE AND FARMINGTON.

MOZ001>031-035>038-043-044-053-054-231000-
...NORTHERN AND WESTERN MISSOURI...

CITY           SKY/WX    TMP DP  RH WIND       PRES   REMARKS
KANSAS CTY INT FOG       32  32 100 W5        30.19F VSB 1/2 WCI  27
LEE`S SUMMIT   CLOUDY    34  33  96 W7        30.20R FOG     WCI  28
ST JOSEPH      CLOUDY    32  32 100 W7        30.20S WCI  26
CHILLICOTHE      N/A     34  33  96 CALM      30.18S

$$
MOZ066>068-077>081-088>096-101>105-231000-
...SOUTHWEST MISSOURI...

CITY           SKY/WX    TMP DP  RH WIND       PRES   REMARKS
SPRINGFIELD    CLOUDY    43  43 100 NW6       30.19S FOG
JOPLIN         CLOUDY    38  38 100 CALM      30.22S FOG

$$
MOZ032>034-039>042-045>050-055>058-069>072-231000-
...CENTRAL MISSOURI...

CITY           SKY/WX    TMP DP  RH WIND       PRES   REMARKS
COLUMBIA       NOT AVBL
JEFFERSON CITY CLOUDY    44  42  93 W6        30.19S
ROLLA          CLOUDY    44  44 100 SW9       30.18S FOG
SEDALIA        CLOUDY    39  39 100 W8        30.20R
WARRENSBURG    CLOUDY    34  34 100 SW5       30.20R WCI  30

$$
MOZ051-052-059>065-231000-
...EAST CENTRAL MISSOURI...

CITY           SKY/WX    TMP DP  RH WIND       PRES   REMARKS
ST LOUIS INTL  LGT RAIN  46  46 100 W12       30.18R FOG

$$
MOZ072>076-082>087-097>100-106>115-231000-
...SOUTH CENTRAL AND SOUTHEAST MISSOURI...

CITY           SKY/WX    TMP DP  RH WIND       PRES   REMARKS
CAPE GIRARDEAU CLOUDY    53  51  93 SE10      30.17F
POPLAR BLUFF   CLOUDY    48  48 100 CALM      30.16F FOG
WEST PLAINS    FOG       45  44  97 W6        30.19S VSB 1/4

$$


USA.gov is the U.S. government's official web portal to all federal, state and local government web resources and services.